Location: Cheching
(60.0667°N, 164.2167°W)
Time: 19:52:37
(UTC+00:00)

DX 1 - Pass Details

Date: 29 January 2021
Orbit: 618 x 631 km, 98.5° (Epoch: 26 February)

Event Time Altitude Azimuth Distance (km) Brightness Sun altitude
Exits shadow 04:55:11 19° 101° (E) 1,487 ? -13.6°
Drops below altitude 10° 04:57:43 10° 136° (SE) 1,987 ? -13.9°
Sets 05:00:25 0° 154° (SSE) 2,888 ? -14.2°
